Theta_e
343 330 314 318 318 320 321 322 325 323 318 326 332 331 333 331 331 329 330 333 335 336 335 334 334 336 337 337 337 337 335 334 333 332 327 318 313 310 307 308 308 308 310 315 317 316 320 334 338 329 321 317 315 313 314 313 314 314 314 314 314 314 314 314 314 314 314 314 314 313 313 313 313 313 313 313 313 313 313 314 314 317 318 316 316
343 328 314 317 318 320 320 321 324 324 318 324 333 332 332 330 328 328 333 335 335 336 335 335 336 336 337 337 337 336 334 334 333 332 325 318 316 309 307 308 309 310 311 315 316 317 325 335 334 325 318 315 314 313 314 313 314 314 314 314 314 314 314 314 314 314 314 314 314 313 313 312 313 312 312 313 312 313 313 314 315 316 316 316 316
342 324 315 317 317 320 320 321 323 325 318 322 332 332 331 328 327 332 336 336 336 336 335 336 336 336 337 337 336 335 334 334 333 333 329 324 318 308 308 309 309 311 310 312 314 316 325 331 326 318 315 313 313 313 313 313 314 314 314 314 314 314 314 314 313 314 314 315 319 321 320 316 314 314 313 313 314 314 314 314 315 315 316 317 317
340 323 316 316 317 320 320 322 323 325 319 318 330 332 331 328 329 334 337 336 337 335 335 336 336 337 336 336 335 335 335 334 334 333 333 330 318 307 308 309 311 318 317 312 312 315 320 324 320 315 314 313 313 313 313 313 314 314 314 314 314 314 314 314 313 314 314 319 326 329 329 326 319 317 316 316 316 316 316 315 316 316 317 318 318
339 323 316 315 317 320 320 323 323 325 320 316 326 332 330 328 330 335 337 336 337 336 336 336 336 337 336 336 335 335 335 334 334 333 335 330 315 307 309 308 314 325 329 321 316 319 321 321 318 315 313 312 313 313 313 313 313 314 314 313 313 314 314 314 313 314 318 324 329 330 332 332 325 322 321 319 319 318 317 317 317 317 318 319 319
340 323 316 318 316 319 321 323 324 324 321 316 321 331 330 328 331 334 336 336 337 337 337 337 337 337 337 337 336 335 334 334 333 333 335 329 314 307 309 308 313 326 331 328 325 326 324 320 316 314 312 312 312 313 314 313 313 314 313 313 313 313 314 314 314 316 322 328 332 331 331 333 330 325 325 323 323 322 320 320 319 319 320 319 320
340 325 320 325 317 317 321 322 324 323 322 316 317 327 331 329 331 334 336 336 337 337 337 337 337 337 336 336 335 334 333 333 332 332 334 333 323 310 308 310 311 321 329 329 328 326 322 317 315 313 312 312 312 313 313 313 313 313 313 313 313 314 315 315 317 319 323 329 332 332 331 334 333 328 326 326 325 325 324 323 322 322 321 321 321
341 331 332 336 323 315 321 322 323 324 322 317 315 322 329 330 331 334 336 336 336 337 337 337 337 337 336 335 334 334 332 331 331 331 332 333 327 313 307 311 311 317 324 325 325 322 319 315 314 313 312 312 312 313 313 313 313 313 313 313 315 315 317 317 321 324 327 331 331 330 332 334 334 329 326 326 325 325 324 324 323 323 322 322 322
340 339 341 341 324 315 321 322 324 325 321 316 314 317 325 330 331 334 336 336 337 337 337 337 337 336 335 334 333 332 331 330 329 329 330 330 323 313 308 310 314 318 320 321 321 319 316 314 313 312 312 313 312 313 313 314 314 314 315 315 316 317 318 320 325 329 331 333 330 328 330 332 333 329 326 326 326 325 325 325 324 324 323 323 322
341 343 344 340 324 317 319 322 325 325 320 316 314 315 323 330 332 336 337 337 337 337 337 337 337 336 335 333 332 331 330 329 329 327 324 321 315 311 309 309 314 318 318 318 317 315 314 313 313 312 312 313 313 313 313 314 315 316 316 316 318 318 321 324 329 330 331 333 330 330 329 331 334 329 327 328 327 327 327 328 327 326 326 325 325
342 343 344 338 323 317 319 323 325 324 319 314 313 318 326 331 334 337 337 337 336 337 336 336 336 335 334 332 331 329 328 329 329 326 317 311 310 310 309 310 312 316 317 316 315 314 314 313 313 313 312 313 313 314 315 317 317 317 318 318 319 319 322 327 331 330 331 331 329 331 331 332 334 329 327 328 328 329 329 330 329 329 329 329 330
341 343 340 331 321 316 320 324 325 324 318 312 316 325 330 333 335 337 337 337 337 337 336 335 335 334 332 329 327 323 322 323 322 321 314 308 309 310 309 309 313 316 316 315 314 314 313 313 313 313 313 314 315 317 318 318 318 318 318 318 318 318 320 327 331 330 331 330 329 331 332 332 332 329 328 329 329 330 330 331 331 331 330 330 331
341 341 334 325 319 317 322 325 326 323 316 314 322 329 333 335 337 337 336 336 337 337 335 334 332 330 326 322 319 316 313 313 312 311 310 308 309 310 309 309 312 316 315 314 314 313 313 312 313 313 314 315 317 319 319 319 318 317 317 316 316 315 320 327 330 330 330 330 330 330 332 333 331 329 329 329 330 331 332 332 332 331 331 331 331
341 340 335 328 318 319 324 325 327 320 316 322 328 332 334 336 337 336 336 336 337 336 333 331 326 322 319 316 313 311 308 308 308 308 308 308 309 309 309 309 310 313 314 313 313 313 313 313 313 314 315 317 318 319 318 318 317 316 315 314 314 314 320 329 331 330 330 330 330 329 332 334 332 330 329 329 330 332 332 332 332 332 332 331 331
341 338 338 333 319 321 325 327 325 318 322 329 331 334 335 336 336 335 336 336 336 333 330 324 318 315 313 311 309 308 308 308 308 308 309 309 310 309 309 309 309 312 314 313 313 313 314 314 315 316 317 317 318 318 317 316 315 314 314 314 314 314 318 327 331 330 331 331 330 331 333 334 332 330 330 330 331 332 333 332 332 332 332 331 331
340 339 340 336 325 323 328 328 322 320 328 333 334 337 336 335 336 335 336 335 334 330 324 317 313 311 309 308 308 307 308 308 309 309 309 310 310 310 309 309 310 311 313 313 313 314 315 316 317 317 317 317 317 316 316 315 314 314 315 315 314 314 314 323 331 331 331 330 330 332 333 333 331 330 330 331 332 333 332 332 331 332 332 331 331
341 342 342 339 332 329 332 326 320 326 333 334 336 338 336 336 336 335 335 333 331 325 318 314 311 309 308 308 307 307 308 308 309 310 310 311 311 310 309 309 310 312 314 315 316 316 317 317 317 317 317 317 317 316 316 315 316 316 315 315 314 313 312 320 330 332 332 331 332 333 333 331 329 330 330 331 332 332 332 331 331 331 331 331 331
342 343 343 340 336 335 336 327 323 334 336 335 337 336 337 337 334 334 333 331 327 320 314 311 309 308 308 308 308 308 308 308 309 311 311 311 312 311 310 309 309 311 313 315 316 317 317 318 317 317 317 317 317 316 315 316 316 316 316 314 313 313 316 324 330 332 332 333 333 332 332 331 329 330 330 331 332 332 332 331 330 330 330 330 330
343 343 342 341 337 337 337 330 329 337 336 336 338 336 337 335 333 333 332 329 323 316 313 310 308 308 308 308 308 308 308 308 309 311 312 312 312 311 310 310 310 311 312 313 314 315 316 317 317 316 316 316 316 316 315 315 315 315 315 313 313 316 322 328 330 331 331 333 333 331 331 331 329 330 330 330 332 332 332 331 329 330 331 330 329
343 341 342 340 338 337 336 334 334 337 337 338 338 337 335 333 332 332 331 328 321 315 312 308 308 308 308 309 308 309 308 308 309 311 312 313 312 311 311 310 310 310 311 311 312 313 313 315 315 315 315 315 315 314 314 314 314 314 313 314 319 325 328 330 332 332 332 333 333 332 332 331 330 331 331 331 332 332 331 331 330 330 331 330 330
342 341 341 339 338 337 337 337 336 337 339 338 338 338 334 332 332 332 332 327 320 315 311 308 309 309 309 309 312 318 316 310 309 310 312 313 312 311 311 311 310 310 310 311 311 311 311 312 312 313 313 313 312 313 318 322 322 321 317 318 327 332 333 333 334 334 333 334 333 333 332 331 331 332 332 332 332 332 331 331 331 331 331 331 331
341 341 340 339 338 337 337 339 338 338 340 338 338 338 333 332 333 332 332 328 321 314 309 308 309 310 312 314 323 329 328 323 316 311 311 312 313 312 311 311 311 311 311 311 311 311 311 311 312 312 312 312 316 319 324 328 329 329 326 327 332 333 334 336 336 335 334 334 333 332 332 331 332 332 332 332 332 331 330 331 331 331 331 331 331
341 340 339 339 337 337 338 339 340 339 339 338 339 339 335 335 337 335 333 328 321 316 313 314 316 320 323 325 329 331 334 335 327 320 316 312 312 312 312 311 312 312 312 312 312 312 311 311 312 311 314 320 326 328 329 330 330 331 332 332 334 335 335 336 336 334 335 334 332 332 331 331 332 332 332 331 331 330 330 330 331 331 331 331 331
340 339 339 338 336 337 338 339 341 340 339 339 339 339 338 338 340 339 336 329 325 324 324 328 331 332 330 329 330 329 333 335 331 331 329 322 318 315 313 312 312 312 313 314 314 314 315 318 319 317 323 330 331 331 331 332 332 332 334 334 335 337 336 336 336 334 335 335 333 331 331 331 331 331 331 331 330 330 330 330 330 330 330 331 331
340 339 338 337 337 337 339 339 340 340 340 340 339 339 339 340 341 340 337 333 332 332 332 334 333 330 329 329 331 329 332 335 334 336 336 333 330 327 324 322 320 320 321 325 325 326 327 330 332 330 332 334 333 334 333 334 335 335 336 336 337 337 336 336 336 334 335 334 332 331 330 330 330 330 330 330 330 330 330 330 330 330 330 330 330
339 339 337 336 337 338 339 339 339 340 340 341 341 338 339 340 340 340 337 334 335 334 334 332 325 325 329 330 331 331 335 337 335 335 334 335 336 334 333 333 334 332 332 335 335 336 336 335 336 336 336 335 336 337 337 337 337 337 337 337 337 337 337 336 336 335 335 333 332 331 330 329 329 329 329 330 330 330 330 330 330 330 330 330 329
339 339 337 336 338 338 339 338 337 339 339 341 341 338 339 340 339 339 336 335 335 334 333 330 325 327 330 331 333 336 338 337 335 334 334 337 337 336 336 336 338 338 336 337 337 337 337 337 337 337 337 337 337 337 338 338 337 337 336 336 336 336 337 337 337 335 334 333 331 330 328 327 327 327 328 329 330 331 330 330 330 330 330 330 329
340 339 337 337 338 338 338 338 336 337 338 339 339 339 339 340 339 336 335 334 334 333 332 330 327 327 329 332 336 338 339 339 339 337 337 339 338 337 338 337 338 338 338 338 337 337 338 338 338 338 338 337 337 338 338 338 337 337 336 336 336 336 336 336 337 335 334 333 330 328 327 326 326 327 328 329 329 330 330 330 330 330 330 330 330
339 338 337 337 338 338 338 339 336 334 337 336 337 338 338 339 336 334 335 332 333 336 331 327 328 329 330 334 336 336 338 341 340 339 339 340 338 337 338 338 338 338 337 338 338 338 338 338 338 338 338 337 337 337 337 337 337 336 335 335 335 335 335 336 337 334 333 333 329 326 327 327 327 328 329 329 330 330 330 330 330 330 330 330 330
340 339 338 337 337 337 337 338 337 335 336 335 335 337 337 337 333 334 335 329 332 335 328 327 332 333 333 334 336 334 337 340 340 339 338 339 338 336 337 337 338 337 336 338 339 339 338 338 338 338 337 337 337 337 336 336 336 335 334 335 335 335 335 335 335 333 333 332 329 326 326 328 329 330 330 330 331 330 330 330 330 329 329 329 329
341 339 338 338 337 337 337 337 337 336 335 334 333 335 337 336 333 334 332 327 330 331 329 332 334 335 334 334 336 335 336 340 339 339 338 336 337 337 337 337 338 338 338 339 338 338 339 338 338 337 336 337 336 336 336 336 335 335 334 334 334 334 334 333 332 332 332 332 330 328 326 327 328 330 331 330 331 330 330 329 328 328 328 328 328
341 340 338 338 337 336 336 337 337 336 334 333 334 336 337 335 334 332 329 327 330 332 332 333 333 335 334 333 334 334 337 339 337 337 338 337 337 337 337 337 338 339 338 337 336 336 337 336 335 334 334 335 336 335 336 335 335 334 334 334 333 332 332 332 331 331 331 331 330 328 326 326 326 328 330 330 329 329 329 328 328 327 327 327 327
342 340 338 338 337 336 337 337 337 334 332 334 335 336 337 334 331 329 327 329 332 334 333 331 333 332 330 333 335 336 337 336 333 332 337 338 337 337 336 336 338 337 335 334 333 334 336 336 334 334 334 334 335 335 335 335 335 334 333 333 332 331 330 330 330 329 329 329 328 327 326 326 325 325 326 328 328 327 327 327 326 326 326 325 325
342 340 339 338 338 337 337 337 336 331 331 334 335 336 335 331 330 330 330 332 332 332 331 330 330 328 331 334 335 338 337 335 334 330 333 337 335 335 336 336 336 335 333 333 334 336 336 334 334 334 334 333 335 334 334 334 334 333 332 331 330 329 328 327 327 327 328 328 328 327 326 326 326 324 323 324 325 325 324 323 322 321 320 319 319
342 341 340 339 338 337 337 337 335 331 331 334 334 335 333 328 329 331 331 332 331 329 329 329 328 329 334 336 335 338 336 334 335 331 333 336 332 331 335 336 335 334 333 333 334 335 334 333 332 331 332 334 335 333 333 333 333 332 330 329 328 327 326 325 325 324 325 325 326 327 327 327 326 324 322 321 321 319 315 313 311 309 308 307 307
343 341 340 338 337 337 336 336 335 334 333 333 334 335 333 331 332 331 329 331 330 329 329 328 328 332 336 338 337 336 335 334 335 334 334 334 331 332 336 336 334 333 332 332 334 334 333 332 330 328 330 334 334 332 332 332 332 330 329 328 326 325 323 323 324 323 323 323 323 325 325 324 324 322 320 317 313 309 306 304 302 301 301 301 300
342 341 340 339 338 337 337 336 335 336 335 335 336 337 335 334 334 331 329 330 328 328 330 329 331 335 337 339 337 334 335 335 336 337 335 334 335 335 336 335 334 333 332 331 332 331 330 330 330 328 328 331 332 332 332 332 331 329 327 326 324 323 322 322 322 322 324 324 323 323 323 322 319 315 311 308 304 301 301 300 300 300 300 300 300
342 342 341 339 338 337 337 336 336 337 337 337 337 337 337 337 336 333 330 329 327 328 332 333 334 337 338 338 336 334 335 335 335 336 335 335 337 336 335 334 333 333 332 332 331 329 327 328 330 330 327 328 330 331 331 332 330 327 325 324 322 322 322 322 321 321 323 323 322 321 318 314 310 306 302 301 300 300 299 299 300 301 299 299 299
343 342 341 340 339 338 338 337 337 339 338 338 338 338 338 338 337 333 329 327 327 331 333 334 336 337 336 336 335 334 334 334 334 334 335 336 336 335 334 332 332 332 332 332 332 331 330 329 330 329 328 328 328 328 330 331 328 325 324 322 321 322 322 322 322 322 322 321 319 314 310 305 301 300 299 300 299 299 299 299 300 302 300 299 299
343 342 342 341 340 339 338 337 338 339 339 339 339 339 338 339 337 333 329 327 330 334 334 333 335 335 334 334 335 334 334 335 334 334 335 335 335 334 331 330 331 331 330 331 331 331 330 329 330 328 329 329 324 326 330 330 327 324 322 321 321 322 323 322 322 321 319 316 311 306 304 302 300 300 299 299 299 299 299 299 299 299 300 300 299
343 342 342 341 341 340 339 339 338 339 339 338 338 338 339 338 335 333 331 329 331 335 335 333 334 333 334 334 334 334 334 335 335 335 334 333 333 331 330 330 330 329 328 329 329 328 327 328 329 326 327 327 322 325 330 328 325 323 322 321 320 321 322 321 322 320 315 309 304 300 300 300 299 300 299 299 299 299 299 299 298 298 299 299 298
342 342 342 341 341 340 340 340 339 338 338 337 336 337 338 336 334 332 331 330 332 334 335 334 334 334 334 335 335 335 335 335 334 333 332 331 330 329 329 328 328 327 327 328 327 326 327 328 328 324 321 321 318 324 328 326 325 324 323 322 321 320 320 320 319 315 308 303 300 299 299 300 300 299 301 301 300 300 299 298 298 298 298 298 297
342 342 341 340 341 340 340 340 338 338 338 337 336 335 333 332 333 332 330 332 334 334 335 335 333 333 334 335 335 334 333 333 332 331 331 330 330 329 328 325 325 326 327 328 327 326 328 327 325 322 317 314 313 318 324 326 327 327 325 324 323 322 320 317 313 306 303 300 299 299 299 302 302 299 301 303 302 300 299 298 298 298 298 298 297
342 342 340 341 341 339 339 339 337 338 337 337 336 334 331 330 332 333 333 334 335 335 335 334 333 333 333 333 333 333 332 332 331 331 330 330 329 327 326 325 323 323 325 327 326 325 325 321 319 317 316 318 315 311 316 322 327 329 327 326 326 326 323 318 311 303 301 300 299 299 299 300 300 300 302 303 303 301 300 298 297 298 298 297 298
342 341 340 341 340 339 339 339 337 337 337 337 334 332 333 332 333 334 335 336 335 334 334 333 333 333 333 333 332 332 332 332 331 330 329 328 327 325 324 324 322 323 324 325 323 320 318 315 313 311 315 321 317 308 309 316 324 328 328 327 327 326 324 320 315 308 305 303 300 298 299 298 298 302 303 302 302 301 301 301 298 298 298 297 297
341 341 340 339 338 338 338 338 338 337 338 336 333 333 335 334 334 334 335 335 334 334 333 333 333 333 333 333 333 332 331 331 331 329 328 327 325 324 323 323 323 324 324 322 318 315 313 311 311 309 309 313 312 307 304 309 316 321 324 326 326 325 323 320 317 313 307 305 302 299 298 298 298 302 303 301 299 297 300 301 300 299 298 297 297
341 341 339 337 336 338 339 338 338 338 338 335 333 335 336 335 335 334 334 334 333 333 333 333 333 333 333 333 332 332 331 331 330 328 327 326 324 324 324 323 323 323 320 318 314 312 311 309 308 308 305 305 308 309 304 303 306 310 315 318 317 316 317 318 318 315 311 309 307 303 300 298 298 301 302 302 300 297 297 299 301 301 299 298 299
341 340 339 336 335 338 340 340 338 338 338 336 334 336 337 336 335 333 334 335 334 334 333 333 333 332 333 332 332 332 331 329 327 326 326 325 324 324 324 323 322 319 315 313 312 310 309 307 305 305 303 302 307 309 306 303 303 303 304 306 305 305 306 312 316 315 314 314 311 308 306 304 302 299 298 300 300 297 298 298 300 302 300 300 301
341 339 338 336 334 336 340 339 338 338 337 337 336 337 336 335 334 334 335 335 335 334 333 333 333 333 332 331 331 330 329 327 326 324 323 323 323 323 323 322 319 315 312 311 310 308 306 305 303 302 302 302 303 305 303 301 302 301 301 302 301 301 301 305 309 310 312 314 312 310 310 309 309 305 299 298 298 298 300 300 301 302 301 301 302
341 339 338 336 334 336 339 338 338 338 337 338 337 336 335 334 334 334 335 335 335 334 333 333 333 333 332 331 330 329 327 326 325 323 322 322 323 322 321 319 316 312 310 308 306 304 303 302 302 301 301 301 301 301 301 301 301 301 303 307 309 308 307 307 307 308 310 311 310 308 309 309 311 310 305 301 300 301 302 303 303 303 302 302 302
340 339 338 338 336 336 337 338 339 338 337 337 337 336 335 334 334 333 334 335 334 333 333 332 332 332 331 330 329 328 326 325 323 323 322 321 322 321 319 316 312 309 307 304 303 302 301 301 301 301 301 301 300 300 301 300 300 300 301 305 308 308 308 308 307 308 310 310 310 308 307 307 308 309 307 304 303 303 304 303 303 303 302 302 301
Wind_Speed
15 17 16 14 14 15 14 13 12 10 11 13 13 12 12 12 11 10 9 8 8 7 7 8 9 9 8 7 6 6 7 7 7 7 7 8 9 10 7 5 6 7 7 8 9 9 12 13 11 12 13 16 19 18 18 18 18 18 17 16 16 16 16 16 16 16 16 16 17 18 17 16 15 15 16 16 16 16 17 17 17 16 13 13 15
17 18 16 15 15 16 15 14 12 11 11 13 14 13 12 11 10 9 8 8 8 8 8 9 8 8 8 7 6 6 7 7 7 7 7 8 11 11 9 7 8 9 10 11 12 12 12 12 11 13 16 19 19 18 19 19 18 17 16 15 15 15 15 15 14 14 15 15 17 19 19 17 15 15 15 15 16 16 16 16 15 14 12 13 14
18 18 16 15 16 16 16 14 13 11 11 13 14 13 12 11 10 9 8 8 8 8 9 8 8 7 7 6 6 6 6 7 7 7 8 9 11 12 10 8 10 12 12 13 13 13 12 12 14 17 19 19 19 18 19 18 17 16 15 15 14 14 14 14 13 13 13 14 17 19 18 18 17 15 15 15 15 15 14 14 13 13 13 14 13
17 19 17 15 16 17 16 15 13 11 11 12 14 13 12 11 10 9 9 9 8 8 8 8 8 7 6 6 6 6 7 7 7 7 8 9 10 11 10 10 12 12 13 13 12 12 12 14 17 19 19 19 18 18 18 17 17 16 15 14 14 13 13 13 12 12 13 16 20 20 16 15 17 15 14 14 14 14 13 13 13 13 13 13 13
16 19 18 15 16 17 16 15 14 12 10 11 13 13 11 11 10 9 9 9 8 8 8 7 7 7 6 6 6 6 6 7 7 6 7 9 10 11 10 10 12 12 12 13 13 13 13 16 19 19 19 18 18 17 17 16 15 15 14 14 13 12 12 12 12 12 15 19 20 19 12 9 13 15 14 13 13 13 12 11 11 11 11 11 12
16 17 17 16 16 17 16 15 14 12 11 11 12 12 11 10 10 9 9 9 8 7 7 7 6 6 6 6 6 6 5 5 5 5 6 9 10 10 9 9 11 12 13 13 14 14 14 17 19 18 18 18 17 16 16 15 14 14 13 13 12 11 11 12 11 11 15 20 18 14 9 6 10 13 13 12 12 11 11 10 10 11 11 11 12
16 15 14 14 16 18 16 15 14 12 11 11 12 12 11 10 10 9 9 9 8 7 6 6 6 6 5 5 5 5 4 3 3 4 4 7 9 9 8 9 11 12 14 14 14 15 16 17 18 18 17 17 16 16 14 13 13 12 12 11 11 10 10 10 10 11 15 18 14 8 7 7 7 12 13 12 12 11 10 10 10 10 10 11 11
16 13 12 12 16 18 16 16 14 12 11 11 12 13 12 10 10 9 8 8 7 7 6 6 6 5 4 4 4 3 3 1 1 2 2 4 5 7 7 9 12 14 15 15 15 15 16 17 17 17 17 16 15 14 13 12 11 11 10 10 9 9 9 9 10 12 16 15 9 6 6 8 6 10 13 12 12 11 11 10 10 10 10 11 11
16 15 14 12 15 18 16 16 14 13 11 11 12 13 12 11 10 9 9 8 7 7 6 6 6 5 4 3 2 2 1 1 1 1 1 1 3 4 6 9 12 15 16 16 16 16 17 17 17 16 16 15 14 13 11 11 10 9 9 8 8 8 9 9 11 14 16 10 7 8 7 7 6 9 12 12 13 13 13 12 12 11 11 11 11
17 17 15 11 14 18 17 15 14 13 11 11 12 12 12 11 10 10 8 8 7 6 5 6 5 4 3 2 2 2 1 1 1 1 2 1 0 3 5 8 12 15 16 16 17 17 17 17 16 15 14 14 12 11 10 9 8 8 8 8 8 8 9 9 12 15 13 6 5 8 9 10 5 10 12 12 13 13 13 12 12 11 11 11 12
17 18 13 11 14 17 17 16 14 13 12 11 12 12 13 12 10 10 9 8 7 6 6 5 5 4 3 3 3 3 3 2 1 1 1 2 2 4 5 8 12 15 15 16 16 17 17 16 15 14 14 13 11 10 8 8 8 8 7 7 7 8 9 10 13 13 8 4 6 6 10 10 4 10 12 12 13 12 12 11 11 11 11 12 12
16 17 13 11 13 16 17 16 14 13 11 12 12 13 13 12 10 10 9 8 7 7 6 5 5 5 5 5 5 4 4 3 2 2 1 2 4 5 6 8 12 15 16 16 16 17 17 16 15 14 13 12 10 9 8 7 7 6 6 6 7 8 9 11 12 9 4 4 7 6 6 7 5 11 12 12 12 11 11 11 11 11 11 11 11
16 15 13 11 14 17 17 16 14 12 12 13 13 13 12 12 11 10 9 8 7 6 6 5 5 5 5 5 4 4 3 2 2 2 1 3 5 7 7 8 11 13 15 16 15 16 16 16 15 13 12 11 10 9 7 6 5 5 4 5 6 7 8 10 11 6 4 4 6 6 4 4 7 11 12 11 11 11 11 11 10 10 10 10 11
16 13 11 11 15 18 18 16 14 13 14 14 14 13 12 12 11 10 9 9 8 6 5 4 4 4 4 3 3 3 3 2 2 2 1 3 6 7 8 8 9 10 13 15 15 15 15 14 13 12 11 10 9 8 6 6 4 4 3 4 5 6 6 10 10 4 4 5 5 6 5 5 9 12 11 11 11 10 10 10 10 10 10 10 11
15 12 11 11 16 19 17 16 14 14 15 14 14 13 12 12 11 10 9 8 6 4 4 4 3 3 3 3 3 3 3 3 2 2 2 3 6 8 8 8 8 9 11 13 14 15 14 13 12 11 10 9 7 6 5 4 3 3 2 3 4 6 6 8 7 5 4 5 5 7 6 6 10 12 10 10 10 9 9 10 10 10 10 10 11
15 12 11 11 16 19 17 16 15 15 15 14 14 13 12 12 11 10 9 7 5 4 4 3 3 3 4 4 4 4 4 3 3 2 2 3 6 8 8 8 8 9 10 12 13 13 12 11 10 9 8 7 5 4 3 2 1 2 2 4 5 6 6 6 5 4 4 6 5 5 6 7 9 11 10 10 10 10 11 12 12 11 10 10 11
15 12 10 11 15 17 16 16 15 15 14 14 13 12 12 11 11 10 7 5 4 4 3 3 4 4 5 5 5 5 4 4 4 3 3 3 6 8 8 8 9 9 9 10 11 10 10 9 8 7 5 4 3 2 1 1 2 3 4 5 6 7 7 6 6 3 4 7 5 4 7 9 9 9 9 10 11 12 12 13 13 11 10 10 11
13 11 10 12 15 15 13 15 16 14 13 13 12 12 12 11 10 9 6 5 5 4 4 4 5 6 6 6 6 5 5 5 4 4 3 4 6 7 8 8 9 9 9 9 9 9 8 8 6 5 4 3 2 1 1 2 3 5 6 6 7 7 7 7 8 5 5 6 6 8 8 9 9 8 9 10 11 13 13 13 13 12 11 11 12
12 11 10 12 15 14 13 16 16 13 12 12 12 11 11 10 9 8 6 5 4 4 4 5 6 6 6 6 6 6 6 5 5 4 4 5 6 7 7 8 8 8 9 8 8 7 7 6 5 4 3 3 2 2 2 4 5 6 7 8 8 7 6 7 8 7 5 2 4 9 9 9 9 9 11 11 12 14 14 13 13 13 12 12 12
12 11 11 12 14 14 14 16 15 14 12 12 12 10 10 9 8 7 5 5 4 4 5 6 7 7 7 7 8 8 7 6 5 5 4 4 5 7 7 6 7 7 7 6 5 5 5 4 4 4 3 3 2 3 4 5 7 7 8 9 8 6 7 7 7 5 5 4 6 9 9 9 9 10 11 12 13 15 15 14 13 13 13 13 13
13 11 11 12 13 14 15 15 15 15 14 13 12 11 9 8 7 6 5 4 4 5 6 7 7 7 8 8 7 7 7 7 6 5 5 4 4 5 6 5 5 5 5 4 4 3 3 3 2 2 2 2 3 4 4 7 9 10 10 8 6 6 7 6 5 4 5 5 7 8 8 8 9 10 10 11 13 15 15 14 13 13 13 13 13
12 12 12 12 13 14 15 15 15 16 15 14 13 11 10 8 7 6 5 4 4 6 6 7 8 8 7 7 7 6 5 6 5 4 4 4 4 4 5 5 5 4 4 3 2 2 1 1 1 1 2 3 4 5 7 9 10 11 10 8 6 6 5 5 4 4 4 5 7 7 7 8 9 9 10 11 12 14 14 13 13 14 13 14 14
13 13 12 12 14 15 15 15 15 16 15 14 13 11 9 9 8 6 5 4 4 6 7 6 6 6 5 6 7 6 4 3 3 5 5 5 4 4 4 4 4 4 3 2 2 1 0 1 2 2 3 5 6 8 8 10 10 10 10 8 7 5 5 4 4 4 3 5 7 7 7 8 8 9 10 11 12 13 13 13 13 14 13 13 13
13 14 12 12 15 15 15 15 15 15 15 14 13 11 10 9 8 7 6 4 4 6 8 7 5 6 5 5 6 4 3 3 4 4 4 5 5 4 4 5 5 4 4 3 2 2 1 2 4 3 4 6 6 5 4 6 6 8 8 7 6 5 5 4 5 6 5 5 6 7 7 8 9 9 10 11 12 13 13 13 13 14 13 13 12
13 13 13 14 16 16 16 16 15 15 13 13 13 13 11 10 9 8 6 6 7 8 8 9 9 9 6 5 4 3 3 4 4 4 3 4 4 4 4 4 5 4 4 3 3 1 1 3 4 4 4 3 3 3 4 3 3 5 5 5 5 5 5 5 6 7 6 6 6 7 8 9 10 10 11 11 12 12 12 12 12 13 13 12 12
15 14 14 16 17 16 16 16 16 14 13 11 12 13 11 9 9 9 7 8 9 9 9 9 9 8 5 5 4 4 4 5 4 4 4 4 5 5 4 4 4 5 4 3 4 2 1 2 1 2 2 1 2 2 3 3 3 3 3 4 4 4 5 6 8 8 7 7 6 7 9 10 10 10 11 11 11 11 11 11 11 11 12 12 12
16 15 15 17 17 17 15 16 16 15 14 12 11 12 11 10 10 10 8 8 9 10 10 9 8 6 5 5 5 4 5 5 4 5 5 5 5 4 4 4 5 5 3 2 4 3 1 3 3 2 1 1 1 1 2 3 2 2 3 3 4 4 4 5 6 8 8 7 6 7 9 9 10 10 10 10 10 10 10 10 10 10 11 12 12
16 15 16 17 17 17 16 16 17 16 14 13 11 12 11 10 11 10 9 10 9 9 10 10 8 6 6 5 5 5 5 4 4 5 5 5 5 4 4 5 5 5 3 2 2 3 2 2 2 2 1 0 1 2 2 3 3 3 3 3 3 4 4 3 3 5 6 7 8 7 8 8 9 9 9 9 8 8 9 9 9 10 11 12 12
16 17 17 17 16 17 17 15 16 17 15 14 13 12 12 11 11 9 9 11 10 10 10 9 8 7 6 6 6 6 5 5 5 5 5 6 7 6 7 6 5 5 5 3 2 2 2 1 1 2 1 1 1 2 2 2 3 3 3 3 3 3 3 4 3 4 5 7 9 8 7 7 7 8 8 8 8 8 8 9 9 10 10 11 11
17 18 17 17 16 16 18 16 16 18 15 15 15 13 12 12 10 10 10 11 12 11 10 9 8 7 7 6 6 6 6 6 6 6 7 7 7 6 6 6 5 4 5 4 2 1 2 2 1 1 1 1 0 1 2 2 3 3 3 4 4 4 3 3 2 3 4 5 10 10 9 7 7 7 7 8 8 8 9 9 9 10 10 11 11
18 19 17 17 17 17 17 17 16 17 17 16 16 14 12 12 11 11 11 11 11 11 10 9 9 7 7 7 6 7 7 7 8 7 7 7 6 6 6 6 5 5 5 3 3 3 2 1 1 1 1 0 0 1 2 2 2 3 3 3 4 4 3 3 2 2 3 3 10 14 12 9 8 7 6 7 7 8 9 10 10 10 11 12 13
19 19 18 17 19 19 18 18 17 17 18 16 16 14 12 13 12 11 11 10 10 9 10 10 9 7 7 7 7 8 7 8 9 8 7 7 7 6 6 6 6 5 5 4 3 3 2 1 0 0 0 0 1 1 2 1 2 3 3 4 4 4 3 3 3 3 3 3 5 14 15 13 10 7 6 6 7 8 8 10 11 10 11 12 13
19 19 19 18 18 19 19 18 17 18 18 16 15 14 13 12 11 12 11 10 9 10 10 10 9 8 7 7 8 8 8 9 10 9 7 7 7 6 6 7 6 6 5 4 3 3 2 0 0 1 2 2 2 1 1 2 3 2 3 4 4 3 3 3 2 3 3 4 3 4 10 12 11 9 7 5 6 8 9 10 11 11 12 12 13
19 19 19 19 19 19 20 18 17 19 19 16 16 14 13 12 12 13 12 10 11 11 11 10 9 8 8 8 8 7 8 8 8 9 8 6 5 4 4 6 6 6 5 4 3 2 1 1 0 1 1 2 2 2 3 3 3 3 3 3 2 1 3 3 3 1 1 2 5 4 1 2 4 7 8 8 8 9 10 11 11 12 13 13 14
19 19 20 20 20 19 19 18 18 20 19 17 16 14 14 13 13 13 11 10 11 11 10 9 9 9 7 8 8 7 8 8 8 9 7 5 3 4 3 5 5 5 4 4 3 2 2 2 1 2 1 1 1 2 3 2 2 2 3 2 1 2 1 2 4 4 3 1 3 5 5 5 4 3 6 10 12 11 11 11 12 12 12 13 13
18 19 21 20 19 19 17 17 19 20 19 17 16 14 14 14 13 13 12 11 11 10 10 9 9 9 6 6 7 7 8 8 7 6 7 5 4 5 3 4 4 4 4 4 2 1 1 1 2 4 2 1 2 2 1 1 1 1 1 1 1 3 2 1 3 3 2 1 2 5 6 6 7 6 6 9 12 12 11 10 10 10 10 11 11
19 18 21 20 19 19 16 16 19 19 17 17 16 15 15 14 13 13 12 11 11 11 9 9 9 8 5 5 7 7 6 6 4 3 4 5 4 4 3 3 3 3 3 2 1 2 2 2 2 4 4 2 1 1 1 3 3 0 2 2 2 3 3 2 2 3 3 3 3 5 6 6 6 7 7 7 9 10 10 9 9 9 9 10 11
19 19 20 19 19 19 16 17 19 18 17 18 17 16 14 13 12 12 12 12 12 12 10 9 9 7 6 6 6 7 6 5 3 2 2 5 3 3 2 2 2 1 1 0 1 2 2 3 3 3 5 4 4 4 2 4 2 2 2 2 3 3 4 3 3 2 3 4 4 5 5 6 6 6 7 7 7 7 8 9 8 8 9 9 9
20 19 19 18 18 18 16 17 18 17 17 17 17 16 14 13 12 13 13 13 13 12 11 10 8 7 8 8 7 7 6 4 3 2 2 2 2 2 3 3 1 1 1 2 0 2 2 2 3 4 4 5 7 7 6 4 3 5 3 3 4 6 5 4 3 2 2 3 3 4 4 5 5 5 5 5 6 6 6 7 6 7 9 10 10
21 20 19 18 17 17 16 16 17 18 18 18 17 16 15 13 13 14 15 15 13 10 11 11 10 9 9 8 7 6 5 4 4 3 4 4 3 4 5 4 2 2 2 1 3 5 5 3 3 4 2 3 5 6 7 8 6 5 3 2 4 6 5 4 2 2 2 3 2 2 3 4 4 4 4 4 5 6 7 7 6 7 8 10 12
23 21 20 19 18 16 15 17 18 19 19 19 17 16 16 15 15 15 14 15 12 10 12 12 11 10 9 8 8 7 6 5 5 6 6 6 6 6 5 4 3 4 5 5 6 6 6 4 3 3 3 4 5 9 7 10 5 5 2 1 3 4 4 3 3 2 2 1 1 2 2 2 3 4 5 6 7 8 8 9 9 9 9 10 13
24 22 21 21 18 16 16 18 19 19 19 17 16 16 16 15 16 16 14 14 12 11 11 11 12 11 9 9 8 8 7 7 8 8 8 8 7 5 3 4 3 3 4 4 5 4 4 3 2 3 5 6 8 12 8 7 3 5 3 2 2 2 3 3 3 2 1 1 2 3 2 3 4 4 5 6 7 7 8 10 11 11 12 12 13
24 22 22 22 20 20 20 20 20 20 18 15 14 15 15 15 15 15 15 13 12 13 12 12 14 13 12 11 10 10 9 8 8 7 8 7 5 4 4 4 3 3 2 1 2 2 2 4 5 5 6 5 8 11 13 11 6 5 5 5 6 4 2 2 1 1 1 2 3 3 3 3 3 4 6 5 6 7 8 11 12 12 14 14 14
23 25 25 24 24 24 23 22 21 20 18 16 14 14 15 16 15 15 15 13 13 15 14 13 14 13 12 10 9 10 8 7 7 6 6 5 3 4 3 3 3 3 2 2 2 2 3 5 7 9 7 4 6 9 12 15 10 7 8 8 9 8 6 5 3 1 1 2 3 3 3 4 3 6 6 4 5 7 9 12 13 14 15 16 16
24 27 27 26 26 27 24 23 22 20 17 17 17 17 18 18 17 17 16 14 14 16 15 13 13 11 10 8 6 7 7 6 6 4 2 2 3 3 2 3 3 3 3 3 4 6 7 8 9 10 10 7 7 7 9 14 13 12 10 6 6 6 4 7 5 3 1 2 4 4 5 4 5 6 5 4 5 6 7 10 14 16 17 17 18
25 27 26 25 26 28 27 26 23 20 17 18 20 20 20 20 20 20 18 15 15 16 15 13 12 11 10 10 7 7 7 6 6 5 1 2 2 2 2 3 3 3 4 6 7 9 9 10 10 10 10 9 8 6 8 11 13 15 13 9 7 2 5 7 5 4 4 1 4 5 6 6 7 5 2 4 6 8 7 7 11 15 17 18 19
25 26 25 25 27 28 27 26 24 21 18 19 22 21 21 21 20 19 16 15 15 15 13 12 12 13 12 12 10 8 7 7 7 5 2 2 2 2 2 3 3 4 6 8 10 11 10 10 11 11 10 10 8 5 6 8 9 12 13 11 9 5 7 8 5 4 5 4 2 4 4 6 8 6 2 3 6 10 10 8 8 10 16 18 19
26 26 25 26 31 29 25 25 24 24 22 22 24 23 22 21 18 16 14 13 13 12 13 13 13 14 13 12 11 9 8 6 4 2 1 3 2 2 3 4 5 7 9 11 11 11 11 10 10 10 10 11 11 9 8 8 7 8 8 8 7 6 8 10 8 5 3 6 7 4 5 7 8 8 6 4 5 9 11 13 10 6 13 15 15
27 26 25 26 32 29 25 25 24 25 25 23 24 24 21 20 18 17 16 13 13 13 13 14 14 15 14 12 12 10 8 6 3 2 2 3 3 3 4 6 8 10 11 12 12 11 10 10 10 9 9 10 11 12 12 11 10 9 8 6 6 6 5 7 10 6 2 3 4 4 5 8 6 6 8 7 7 10 11 14 12 7 12 12 11
27 26 26 28 30 29 27 25 22 23 25 23 24 23 20 19 19 21 19 16 16 16 14 15 17 17 14 12 12 11 7 5 3 2 2 2 3 5 6 8 11 12 13 12 11 11 10 10 10 10 11 10 10 11 12 12 12 12 11 8 5 4 4 3 5 3 1 1 1 2 4 5 4 6 11 11 12 13 10 11 10 8 11 11 11
27 26 27 27 27 27 27 26 22 22 24 24 23 21 19 20 22 22 20 18 19 18 16 17 17 17 15 14 13 9 5 4 4 3 3 2 4 7 8 10 13 13 13 12 11 11 11 11 11 11 11 11 11 10 11 11 10 10 11 10 8 8 7 5 5 5 3 2 1 1 1 2 2 4 9 12 13 11 7 8 7 8 11 11 12
Wind_Direction
158 189 175 167 174 168 160 158 154 154 153 147 143 146 150 149 146 140 133 128 129 134 129 119 113 107 105 105 101 97 87 72 58 51 53 48 37 38 40 61 96 118 135 143 137 126 126 131 126 118 118 116 112 111 110 110 111 110 107 102 100 97 93 90 88 86 84 81 75 66 59 56 55 55 55 51 51 48 46 45 45 49 39 34 36
164 188 174 169 172 171 163 159 158 156 158 151 146 150 152 148 143 132 128 128 130 132 122 114 110 109 109 106 104 99 83 67 58 55 55 45 34 43 54 70 98 113 121 123 127 126 127 131 132 127 122 117 114 115 112 110 111 108 104 100 98 95 92 90 88 85 83 81 74 64 55 50 51 52 55 53 52 51 50 51 50 54 46 37 35
170 188 174 171 169 173 165 160 159 157 162 155 151 152 153 148 136 125 123 125 125 129 123 117 116 115 111 108 109 98 79 68 61 57 53 43 38 47 65 85 101 108 113 118 124 127 126 126 129 126 120 118 118 117 114 112 109 105 102 98 95 91 89 88 86 85 84 75 64 56 48 43 47 47 50 52 51 51 52 54 53 51 48 39 34
172 186 176 173 169 174 166 162 159 160 164 158 156 151 155 147 129 123 123 124 124 128 125 122 120 117 113 111 108 90 75 70 63 54 43 40 47 57 75 96 104 106 111 119 125 127 130 125 124 123 121 121 120 117 114 112 107 104 102 97 93 89 85 83 81 82 74 64 57 52 43 29 36 40 39 46 47 47 48 50 51 48 44 38 30
168 185 177 173 170 175 167 161 158 160 163 160 159 153 158 146 128 125 126 127 126 128 125 121 118 115 110 105 98 83 72 72 66 51 40 50 61 65 81 101 107 106 109 118 124 124 126 125 125 125 124 123 120 118 115 112 108 105 99 95 90 85 82 77 77 75 66 63 61 57 51 17 23 31 29 34 39 40 42 41 42 39 32 28 21
161 184 178 174 172 174 168 161 159 161 162 159 160 157 159 145 129 129 130 130 129 129 124 118 115 113 107 102 95 84 74 70 67 49 46 59 62 66 86 106 113 111 110 116 119 121 123 125 127 127 126 123 121 119 117 113 109 103 98 94 88 84 79 75 72 67 66 65 61 59 58 34 16 19 21 21 28 32 33 29 30 30 21 19 16
153 178 174 170 172 173 168 163 160 161 162 158 160 161 160 145 129 131 133 130 131 130 126 120 118 114 104 102 97 86 76 62 65 53 46 51 50 62 87 111 118 117 118 118 119 123 126 128 129 130 127 124 124 121 119 114 108 103 98 92 87 81 75 72 66 58 62 62 57 55 48 47 13 5 17 14 18 25 25 20 23 27 19 19 15
143 157 153 157 169 170 168 165 161 160 163 160 160 163 160 145 130 131 132 130 134 131 131 125 118 114 105 101 103 93 81 55 72 59 35 37 38 58 86 116 124 123 125 125 125 128 129 131 132 132 129 126 126 123 121 114 109 104 98 91 85 77 73 69 59 53 57 59 50 53 44 44 17 359 13 9 12 18 17 17 22 28 24 25 20
135 138 140 154 167 168 170 166 160 160 164 163 159 162 157 140 132 134 134 134 134 133 133 128 121 116 112 107 111 103 94 271 254 247 286 9 29 65 94 121 130 128 130 131 131 133 132 133 133 133 130 128 129 126 122 115 110 105 98 91 85 78 77 67 57 54 57 60 41 50 56 54 27 358 12 8 10 15 16 19 23 29 27 26 22
134 135 143 163 169 167 171 165 160 164 163 162 158 154 146 136 136 137 137 137 135 136 136 134 131 125 123 119 126 131 147 247 271 238 238 243 57 105 116 131 135 132 135 136 135 137 136 135 136 136 133 132 132 128 124 118 114 106 100 91 87 79 75 64 57 54 53 55 28 25 24 46 35 355 10 9 12 18 18 23 25 28 25 24 22
136 135 149 173 170 167 168 165 162 164 162 160 152 143 138 136 141 140 138 139 140 143 142 145 142 137 142 151 166 177 182 181 163 211 221 191 157 139 137 143 142 138 139 141 141 141 139 139 140 140 137 137 135 132 127 122 118 107 101 90 84 73 68 64 60 52 44 34 18 5 11 38 19 349 6 8 13 17 17 20 20 22 21 21 22
135 136 165 176 164 167 164 166 164 162 161 156 145 138 137 139 142 140 142 145 147 149 150 163 166 169 179 189 200 211 207 195 213 229 187 155 150 149 149 152 150 146 146 146 147 145 143 144 144 145 144 143 139 137 133 128 122 109 100 88 76 69 69 66 63 50 28 14 8 9 18 27 343 348 1 1 9 12 13 14 14 17 18 20 20
136 144 175 173 160 164 163 166 163 160 156 148 140 138 140 143 144 143 151 155 154 161 171 188 197 206 215 225 232 232 219 207 224 237 192 149 145 152 155 159 158 154 153 151 150 147 146 148 148 150 150 149 146 143 139 133 121 109 96 84 69 65 72 66 62 45 8 1 359 9 9 360 342 352 356 354 2 5 10 11 12 15 14 15 14
139 146 158 164 161 159 164 166 161 157 150 142 140 143 146 149 150 151 159 160 162 175 194 215 225 235 238 234 230 215 195 186 189 211 196 151 146 152 158 163 162 158 156 153 151 150 150 151 151 153 155 155 153 149 144 140 132 122 105 82 66 61 68 62 53 17 359 2 354 4 348 337 341 348 351 349 356 1 6 8 9 10 9 8 7
139 142 139 154 158 158 165 163 158 153 147 143 143 146 151 155 155 159 163 165 172 192 217 233 234 230 217 191 186 182 165 162 153 165 181 154 146 148 155 162 162 156 151 152 153 154 154 154 154 156 159 160 158 156 147 145 141 121 101 69 53 51 60 74 55 347 359 3 350 5 346 317 327 338 345 345 350 356 358 359 1 2 2 0 360
134 136 136 145 152 159 163 159 157 151 147 146 148 151 153 159 158 160 165 171 184 207 225 225 215 192 175 162 157 159 148 144 139 145 163 153 142 142 149 157 163 159 152 153 156 158 157 157 158 161 163 161 160 156 149 134 100 42 38 26 22 32 41 79 74 352 356 2 356 5 338 316 325 334 342 343 343 347 347 350 354 356 355 354 355
128 135 140 143 146 154 158 157 153 146 149 149 153 157 157 162 160 162 165 178 195 208 217 190 181 166 152 148 143 145 139 134 130 131 137 141 139 139 144 153 162 165 160 158 160 163 162 164 164 166 165 163 166 155 152 29 10 355 1 2 3 14 22 52 72 27 341 2 359 321 311 321 331 333 338 339 335 338 342 346 350 349 346 347 350
134 143 140 141 142 149 156 151 144 145 151 151 157 162 162 164 161 163 169 185 201 199 193 171 165 151 140 137 134 135 132 128 123 123 125 132 139 140 142 151 162 167 169 168 169 170 170 173 172 175 178 179 189 207 276 336 338 342 343 344 353 3 22 46 53 25 340 10 350 311 309 318 327 330 333 334 330 334 340 345 346 346 343 344 346
150 151 140 145 145 150 154 144 144 151 155 156 160 167 167 165 164 168 178 189 199 190 173 163 154 142 133 126 128 127 121 118 116 119 123 134 143 144 144 150 161 168 171 174 176 178 180 184 188 192 197 213 230 266 307 327 329 335 334 342 353 359 30 37 26 3 327 337 314 315 320 318 325 329 330 332 330 332 339 342 343 348 348 345 345
163 159 150 152 151 153 155 148 152 159 161 164 164 171 171 167 171 173 184 190 190 184 165 160 151 137 131 128 127 119 112 111 115 117 117 137 148 149 150 152 159 164 169 174 178 183 190 197 205 213 221 243 277 306 327 338 337 337 335 347 357 8 32 19 2 343 308 303 305 315 320 319 330 334 334 335 331 332 338 338 339 346 347 345 347
164 163 158 157 156 155 158 156 160 166 167 171 170 173 172 168 177 178 187 191 189 180 161 155 149 141 136 131 121 105 93 88 94 108 115 134 151 157 156 157 159 159 164 169 175 180 187 201 211 232 261 302 320 322 345 358 354 350 347 356 10 27 27 353 337 325 310 319 315 315 322 327 337 341 339 337 334 334 338 337 336 341 344 347 347
162 166 166 162 159 157 165 165 165 174 173 172 174 176 172 167 178 186 186 191 194 177 159 156 150 143 138 124 112 111 98 72 69 89 105 120 146 165 161 164 162 159 170 166 178 183 178 227 272 312 349 355 349 2 0 350 351 353 354 2 17 25 4 324 316 318 318 320 321 330 334 337 341 342 340 338 336 335 338 338 335 338 344 347 346
163 170 172 165 160 162 172 171 170 178 177 172 174 176 169 165 173 177 174 184 200 177 151 147 135 129 140 123 111 126 130 91 78 91 99 107 128 155 160 168 164 165 172 162 185 201 253 351 1 345 28 29 19 24 354 327 335 349 354 359 4 353 323 312 315 322 324 318 328 341 340 342 343 339 339 340 338 335 337 338 337 340 344 344 343
168 171 174 168 163 168 175 173 173 178 179 176 174 172 164 164 167 168 173 167 179 172 148 149 156 157 161 129 114 133 144 152 146 129 120 114 121 143 155 159 159 162 156 159 158 115 102 48 34 28 45 28 11 7 317 302 325 339 340 340 336 322 319 328 331 333 331 332 341 342 344 345 342 339 340 343 340 336 334 335 338 340 343 343 341
168 170 172 170 167 172 176 174 174 175 177 175 174 172 166 166 167 172 177 153 157 174 164 170 179 174 160 127 136 163 167 179 171 161 151 144 145 151 168 161 151 145 138 160 153 89 50 51 24 24 40 8 325 295 277 287 312 317 321 324 320 325 342 339 330 334 332 339 346 342 348 344 341 342 344 346 344 340 337 338 342 342 344 348 346
167 170 170 171 171 172 176 175 173 176 176 174 176 173 169 170 170 176 172 153 164 182 180 177 173 163 156 150 169 183 191 196 183 173 167 190 194 169 171 159 152 152 145 154 152 206 297 85 331 344 46 248 246 282 293 297 303 308 315 323 328 336 354 346 335 336 329 328 334 342 348 345 345 345 345 351 353 354 351 349 349 347 350 353 351
167 171 169 171 175 172 176 179 174 178 177 177 178 173 176 175 177 180 164 162 180 187 182 178 169 161 172 180 186 195 203 199 190 192 180 195 209 180 167 155 160 164 170 171 145 179 178 124 188 195 146 227 254 313 315 318 318 322 325 329 342 346 355 6 351 333 325 320 324 341 347 349 349 348 349 352 359 2 359 359 356 354 356 354 354
168 171 169 173 178 172 177 183 176 180 181 181 179 177 182 178 186 185 166 175 187 187 183 180 174 172 186 193 202 203 200 207 205 198 180 186 200 183 167 164 168 158 161 181 140 151 141 139 169 140 122 55 358 318 332 330 325 333 344 339 348 1 354 27 24 324 319 313 319 336 342 350 352 349 351 346 350 352 349 357 358 355 354 350 351
170 171 171 174 180 173 175 181 179 181 184 187 183 182 184 185 195 184 178 193 184 186 189 179 177 186 201 201 214 213 193 209 212 199 190 193 197 180 165 163 167 157 147 137 125 137 109 110 104 98 77 49 10 325 335 323 327 336 354 346 343 15 19 38 39 326 324 312 322 344 343 345 352 348 349 344 342 342 343 348 347 348 345 344 347
171 172 173 174 180 176 174 179 184 183 183 188 186 187 189 193 199 177 192 205 180 183 184 177 189 197 212 209 219 223 203 210 210 203 203 197 195 181 162 156 156 146 130 116 107 92 67 52 44 82 74 34 347 327 339 334 341 342 1 2 359 22 42 52 37 354 7 337 330 347 351 344 348 347 348 348 344 344 344 343 340 340 336 335 336
172 172 174 176 178 176 175 178 186 184 181 187 187 190 193 194 194 178 194 200 176 177 174 183 202 201 215 215 222 229 216 214 206 200 208 201 189 181 168 151 142 128 115 114 112 101 85 65 53 127 152 79 336 336 350 351 359 2 4 10 21 31 41 58 62 43 57 24 331 335 349 350 342 343 346 347 343 340 338 336 334 332 329 326 323
175 173 174 180 177 174 177 181 186 183 179 186 187 190 194 196 197 187 189 188 175 175 181 196 204 204 218 220 230 234 224 221 213 205 209 206 192 180 171 149 136 133 127 126 130 123 119 155 222 272 263 345 334 348 1 7 29 32 23 25 42 46 45 62 82 90 92 90 341 337 347 349 341 334 331 338 335 329 328 326 323 321 318 316 315
176 174 173 179 177 173 178 185 187 181 179 184 188 190 194 198 198 190 185 183 178 180 194 205 204 213 223 227 236 235 229 228 223 220 219 213 196 177 163 150 144 147 141 129 123 111 103 148 8 342 337 11 355 342 14 39 47 40 44 43 50 65 65 69 108 132 138 149 153 357 354 353 354 344 320 318 325 320 318 316 313 310 308 307 308
176 172 172 177 176 173 178 187 186 181 183 185 189 191 193 198 193 187 188 188 187 190 203 208 207 219 227 232 234 230 236 232 222 225 229 218 194 184 160 144 144 142 137 131 121 109 139 185 119 315 325 25 357 359 20 37 50 26 33 39 33 109 110 92 73 83 195 211 194 190 261 313 358 353 331 323 324 319 315 312 309 307 306 306 306
176 171 173 179 176 175 179 186 183 180 185 187 188 191 192 196 192 191 193 192 193 198 207 207 208 218 224 232 232 228 236 232 224 219 212 195 180 215 183 132 139 139 138 147 137 152 205 215 219 254 311 35 2 32 24 16 76 49 36 32 32 87 138 141 100 77 70 33 250 235 248 254 254 290 316 318 321 321 318 314 312 311 309 309 309
177 171 174 180 175 177 182 183 179 179 185 186 187 188 188 191 193 196 196 194 196 199 204 203 207 217 220 229 235 235 236 232 229 208 185 178 185 213 192 148 157 155 162 164 142 197 245 273 244 237 241 70 15 23 13 274 195 80 78 84 99 106 107 163 154 160 144 114 281 266 272 285 289 289 290 303 314 322 325 322 320 318 319 319 318
176 171 174 177 173 178 182 180 177 179 184 186 186 186 186 189 192 195 196 194 194 197 202 203 208 214 210 220 232 232 232 224 225 210 165 153 163 181 169 168 168 165 197 188 172 218 227 263 233 222 229 185 75 348 289 256 254 121 118 123 128 157 176 177 171 208 228 235 274 287 288 297 306 309 308 309 315 323 330 331 331 331 333 331 330
176 173 174 173 173 178 181 180 177 179 185 187 188 186 186 189 189 192 193 191 192 196 198 199 204 206 203 214 221 216 221 221 219 229 136 127 149 163 157 193 175 181 215 124 317 263 235 245 239 239 241 222 204 185 194 256 254 124 123 114 132 180 207 207 200 218 252 265 284 300 308 316 321 324 325 327 328 331 336 343 348 349 350 348 342
178 175 173 170 172 176 181 182 177 179 186 188 188 186 186 188 188 190 189 190 194 199 202 201 196 198 210 217 218 207 203 210 207 198 163 147 171 193 216 222 182 232 188 86 349 277 276 260 258 266 254 242 233 189 166 194 159 143 132 105 166 205 217 215 223 245 278 299 314 327 338 339 336 340 340 340 345 351 355 1 7 359 354 356 352
182 177 173 169 172 177 180 181 177 182 186 185 187 187 187 187 188 188 186 191 194 197 206 206 198 204 216 216 214 203 184 190 193 188 199 192 194 220 238 250 287 270 248 192 203 225 257 261 249 265 238 235 234 152 170 210 180 154 130 113 193 216 230 233 241 286 322 322 338 16 9 349 347 353 355 360 8 14 17 16 19 13 2 358 356
184 180 174 168 174 179 178 180 182 189 192 187 186 189 190 189 189 188 186 191 195 199 207 208 205 208 213 207 203 197 182 185 188 194 206 208 224 240 250 268 281 259 249 248 236 237 262 265 236 233 182 205 170 134 201 243 194 155 136 111 210 221 239 249 270 289 325 344 9 28 15 7 9 11 13 20 24 20 17 16 15 14 13 7 0
183 180 176 169 175 181 180 186 188 193 198 192 188 192 192 187 186 188 188 189 194 204 209 205 203 201 199 195 190 187 187 195 201 208 218 224 235 248 274 283 274 265 262 259 253 252 260 239 193 190 185 198 165 147 198 240 179 186 183 135 202 231 241 246 277 297 3 49 42 24 27 38 21 25 32 25 25 22 13 14 13 10 11 11 6
179 177 175 172 178 184 185 193 194 193 193 190 190 193 189 180 180 186 188 188 193 202 204 202 201 198 194 190 189 195 198 207 213 218 225 231 244 261 279 278 273 275 271 259 255 248 223 189 173 180 180 189 179 171 188 192 186 214 210 205 208 206 225 225 241 73 74 29 36 35 53 61 24 37 49 28 13 13 11 14 13 10 11 11 8
177 179 177 175 181 187 190 198 201 193 187 191 192 185 180 175 178 187 187 186 196 202 202 203 203 200 198 198 201 205 204 212 218 220 227 239 256 262 269 276 290 291 263 243 228 191 187 179 174 173 156 159 208 203 195 194 193 195 209 230 218 205 202 185 164 94 51 18 36 34 48 64 43 42 45 30 5 0 2 6 10 13 12 12 10
185 187 180 177 183 187 190 198 200 194 190 196 192 180 178 177 183 188 185 185 195 199 203 207 205 197 194 199 207 206 202 213 228 236 240 245 246 254 282 293 294 289 243 218 190 176 176 173 176 177 165 169 208 213 201 202 203 197 204 231 223 213 187 175 171 128 108 9 23 30 39 43 52 58 39 22 14 5 360 353 4 13 11 10 11
193 190 179 180 189 189 192 197 197 195 195 196 190 183 182 184 190 190 187 192 198 201 203 205 199 188 186 194 203 205 200 215 242 256 263 235 247 253 270 288 284 254 215 195 182 178 177 176 179 183 185 185 191 201 198 202 210 211 214 227 239 232 129 164 187 158 176 273 347 17 41 39 50 71 28 11 13 17 23 357 1 9 5 7 9
191 189 178 183 193 189 192 197 194 193 196 194 189 186 186 191 195 193 195 203 206 206 201 198 194 186 186 195 204 210 210 226 245 253 243 216 235 254 254 270 250 220 202 191 185 182 181 183 186 187 191 185 168 171 184 188 205 214 219 228 240 223 163 178 189 169 187 197 255 328 13 27 45 68 34 3 358 10 26 21 15 358 355 4 5
187 188 179 185 193 188 189 193 190 189 190 191 191 191 191 194 195 194 198 204 205 204 198 198 197 188 189 198 205 213 219 231 238 226 193 187 203 248 252 244 222 203 195 192 189 187 184 186 191 189 188 180 165 164 171 170 176 191 204 211 207 194 189 198 193 194 210 183 201 261 305 334 12 41 39 37 354 8 21 20 32 4 349 2 358
187 186 177 184 192 188 190 193 191 190 189 190 194 195 193 194 194 193 195 197 199 205 203 199 194 189 192 197 202 210 218 225 217 162 170 169 191 238 241 227 209 196 195 194 188 188 186 184 187 180 174 174 169 170 170 166 164 164 165 169 171 163 171 196 196 207 247 182 193 209 243 296 327 352 4 23 16 20 22 12 23 11 350 358 348
187 184 177 186 191 186 189 192 191 190 189 191 196 196 194 194 197 197 198 197 200 208 204 193 191 192 194 196 201 210 218 215 197 164 151 149 188 221 230 219 204 195 193 190 185 183 181 178 176 169 163 162 163 166 165 164 166 165 158 148 149 148 133 147 164 160 123 128 113 158 214 269 260 274 317 351 16 23 18 3 5 345 342 349 337
189 185 179 187 192 188 189 190 191 190 189 193 196 194 193 196 202 202 200 199 202 207 201 190 190 194 195 195 201 208 205 191 183 179 164 160 198 212 218 211 200 194 188 183 181 177 172 168 162 160 159 155 153 156 155 155 158 161 161 156 159 161 149 136 126 114 91 80 58 66 254 289 255 257 299 337 8 22 6 351 351 331 337 341 331